Location: Boston
(42.3580°N, 71.0600°W)
Time: 23:34:37
(UTC-04:00)

N. Korean satellite - Pass Details

Date: 11 October 2017
Orbit: 459 x 517 km, 97.2° (Epoch: 19 October)

Event Time Altitude Azimuth Distance (km) Brightness Sun altitude
Rises 18:59:05 0° 176° (S) 2,562 10.2 -10.2°
Reaches altitude 10° 19:01:11 10° 180° (S) 1,675 9.3 -10.6°
Maximum altitude 19:04:44 57° 260° (W) 578 7.3 -11.2°
Drops below altitude 10° 19:08:14 10° 340° (NNW) 1,657 9.5 -11.9°
Sets 19:10:19 0° 344° (NNW) 2,531 10.4 -12.2°
